HORS 3 (RS81S)

Last updated on Mon Sep 21 2026 00:03:15 GMT+0000 (Coordinated Universal Time)

1 61753U 24199U 26263.57422545 .00040663 00000+0 46620-3 0 9999 2 61753 97.2793 141.7020 0002430 297.2522 62.8488 15.61990883152413
UTC large
Height (km)
Speed (km/s)
/
Latitude / Longitude
Inclination (degrees)
Orbital Period (minutes)
Azimuth
Elevation
Range (km)
Doppler Factor

Next 0 passes for location: London (51.5072 / 0.1276)

No passes found over London.
HORS 3 (RS81S)